Time,TemperatureF,DewpointF,PressureIn,WindDirection,WindDirectionDegrees,WindSpeedMPH,WindSpeedGustMPH,Humidity,HourlyPrecipIn,Conditions,Clouds,dailyrainin,SoftwareType,DateUTC
2013-01-18 00:03:00,54.0,54.0,30.17,WNW,299,9.0,17.0,100,0.00,,,0.05,,2013-01-18 05:03:00,
2013-01-18 00:12:00,54.0,54.0,30.17,WNW,299,9.0,17.0,100,0.00,,,0.05,,2013-01-18 05:12:00,
2013-01-18 00:22:00,54.0,54.0,30.16,West,270,5.0,19.0,100,0.00,,,0.05,,2013-01-18 05:22:00,
2013-01-18 00:33:00,53.0,53.0,30.17,WNW,300,5.0,20.0,100,0.00,,,0.05,,2013-01-18 05:33:00,
2013-01-18 00:42:00,53.0,53.0,30.17,WNW,300,5.0,20.0,100,0.00,,,0.05,,2013-01-18 05:42:00,
2013-01-18 00:52:00,53.0,53.0,30.17,WNW,284,5.0,17.0,100,0.00,,,0.05,,2013-01-18 05:52:00,
2013-01-18 01:02:00,53.0,53.0,30.17,West,272,5.0,13.0,100,0.00,,,0.05,,2013-01-18 06:02:00,
2013-01-18 01:12:00,53.0,53.0,30.17,West,272,5.0,13.0,100,0.00,,,0.05,,2013-01-18 06:12:00,
2013-01-18 01:22:00,53.0,53.0,30.17,NNW,328,7.0,19.0,100,0.00,,,0.05,,2013-01-18 06:22:00,
2013-01-18 01:33:00,53.0,53.0,30.17,WNW,299,12.0,15.0,100,0.00,,,0.05,,2013-01-18 06:33:00,
2013-01-18 01:43:00,53.0,53.0,30.17,WNW,299,12.0,15.0,100,0.00,,,0.05,,2013-01-18 06:43:00,
2013-01-18 01:52:00,52.0,52.0,30.18,NNW,337,1.0,15.0,100,0.00,,,0.05,,2013-01-18 06:52:00,
2013-01-18 02:02:00,52.0,52.0,30.18,NW,305,6.0,17.0,100,0.00,,,0.05,,2013-01-18 07:02:00,
2013-01-18 02:12:00,52.0,52.0,30.18,NW,305,6.0,17.0,100,0.00,,,0.05,,2013-01-18 07:12:00,
2013-01-18 02:22:00,52.0,52.0,30.18,West,277,6.0,17.0,100,0.00,,,0.05,,2013-01-18 07:22:00,
2013-01-18 02:32:00,52.0,52.0,30.18,NW,304,6.0,15.0,100,0.00,,,0.05,,2013-01-18 07:32:00,
2013-01-18 02:42:00,52.0,52.0,30.18,NW,304,6.0,15.0,100,0.00,,,0.05,,2013-01-18 07:42:00,
2013-01-18 02:52:00,52.0,52.0,30.19,West,272,6.0,18.0,100,0.00,,,0.05,,2013-01-18 07:52:00,
2013-01-18 03:02:00,52.0,52.0,30.19,WNW,302,5.0,15.0,100,0.00,,,0.05,,2013-01-18 08:02:00,
2013-01-18 03:12:00,52.0,52.0,30.19,WNW,302,5.0,15.0,100,0.00,,,0.05,,2013-01-18 08:12:00,
2013-01-18 03:22:00,51.0,51.0,30.19,NNW,344,8.0,17.0,100,0.00,,,0.05,,2013-01-18 08:22:00,
2013-01-18 03:32:00,51.0,51.0,30.20,North,0,12.0,17.0,100,0.00,,,0.05,,2013-01-18 08:32:00,
2013-01-18 03:42:00,51.0,51.0,30.20,North,0,12.0,17.0,100,0.00,,,0.05,,2013-01-18 08:42:00,
2013-01-18 03:52:00,51.0,51.0,30.19,North,359,5.0,18.0,100,0.00,,,0.05,,2013-01-18 08:52:00,
2013-01-18 04:02:00,50.0,50.0,30.19,North,1,9.0,15.0,100,0.00,,,0.05,,2013-01-18 09:02:00,
2013-01-18 04:12:00,50.0,50.0,30.19,North,1,9.0,15.0,100,0.00,,,0.05,,2013-01-18 09:12:00,
2013-01-18 04:22:00,50.0,50.0,30.20,NNW,347,10.0,16.0,100,0.00,,,0.05,,2013-01-18 09:22:00,
2013-01-18 04:33:00,49.0,49.0,30.19,North,351,11.0,21.0,100,0.00,,,0.05,,2013-01-18 09:33:00,
2013-01-18 04:42:00,49.0,49.0,30.19,North,351,11.0,21.0,100,0.00,,,0.05,,2013-01-18 09:42:00,
2013-01-18 04:53:00,49.0,49.0,30.20,North,0,3.0,15.0,100,0.00,,,0.05,,2013-01-18 09:53:00,
2013-01-18 05:02:00,47.0,47.0,30.21,North,356,6.0,11.0,100,0.00,,,0.05,,2013-01-18 10:02:00,
2013-01-18 05:12:00,47.0,47.0,30.21,North,356,6.0,11.0,100,0.00,,,0.05,,2013-01-18 10:12:00,
2013-01-18 05:22:00,47.0,47.0,30.21,NNE,20,6.0,12.0,100,0.00,,,0.05,,2013-01-18 10:22:00,
2013-01-18 05:32:00,46.0,46.0,30.22,North,8,10.0,14.0,100,0.00,,,0.05,,2013-01-18 10:32:00,
2013-01-18 05:42:00,46.0,46.0,30.22,North,8,10.0,14.0,100,0.00,,,0.05,,2013-01-18 10:42:00,
2013-01-18 05:52:00,45.0,45.0,30.23,NNE,15,4.0,7.0,100,0.01,,,0.06,,2013-01-18 10:52:00,
2013-01-18 06:02:00,44.0,44.0,30.24,North,8,8.0,12.0,100,0.01,,,0.06,,2013-01-18 11:02:00,
2013-01-18 06:12:00,44.0,44.0,30.24,North,8,8.0,12.0,100,0.01,,,0.06,,2013-01-18 11:12:00,
2013-01-18 06:23:00,44.0,44.0,30.25,NE,51,4.0,11.0,100,0.01,,,0.05,,2013-01-18 11:23:00,
2013-01-18 06:32:00,44.0,44.0,30.26,NNE,12,8.0,14.0,100,0.01,,,0.05,,2013-01-18 11:32:00,
2013-01-18 06:42:00,44.0,44.0,30.26,NNE,12,8.0,14.0,100,0.01,,,0.05,,2013-01-18 11:42:00,
2013-01-18 06:52:00,44.0,44.0,30.27,NNE,19,10.0,11.0,100,0.00,,,0.05,,2013-01-18 11:52:00,
2013-01-18 07:03:00,43.0,43.0,30.27,NNE,13,6.0,15.0,100,0.00,,,0.05,,2013-01-18 12:03:00,
2013-01-18 07:12:00,43.0,43.0,30.27,NNE,13,6.0,15.0,100,0.00,,,0.05,,2013-01-18 12:12:00,
2013-01-18 07:22:00,43.0,43.0,30.27,North,5,7.0,16.0,100,0.00,,,0.05,,2013-01-18 12:22:00,
2013-01-18 07:33:00,43.0,43.0,30.28,North,357,7.0,10.0,100,0.00,,,0.05,,2013-01-18 12:33:00,
2013-01-18 07:43:00,43.0,43.0,30.28,North,357,7.0,10.0,100,0.00,,,0.05,,2013-01-18 12:43:00,
2013-01-18 07:52:00,43.0,43.0,30.29,NNW,348,4.0,12.0,100,0.00,,,0.05,,2013-01-18 12:52:00,
2013-01-18 08:03:00,43.0,43.0,30.29,North,352,8.0,10.0,100,0.00,,,0.05,,2013-01-18 13:03:00,
2013-01-18 08:12:00,43.0,43.0,30.29,North,352,8.0,10.0,100,0.00,,,0.05,,2013-01-18 13:12:00,
2013-01-18 08:23:00,44.0,44.0,30.30,North,352,6.0,13.0,100,0.00,,,0.04,,2013-01-18 13:23:00,
2013-01-18 08:33:00,44.0,44.0,30.30,NE,47,9.0,15.0,100,0.00,,,0.04,,2013-01-18 13:33:00,
2013-01-18 08:43:00,44.0,44.0,30.30,NE,47,9.0,15.0,100,0.00,,,0.04,,2013-01-18 13:43:00,
2013-01-18 08:53:00,45.0,45.0,30.32,North,2,10.0,21.0,100,0.00,,,0.04,,2013-01-18 13:53:00,
2013-01-18 09:03:00,45.0,45.0,30.33,North,0,6.0,14.0,100,0.00,,,0.04,,2013-01-18 14:03:00,
2013-01-18 09:12:00,45.0,45.0,30.33,North,0,6.0,14.0,100,0.00,,,0.04,,2013-01-18 14:12:00,
2013-01-18 09:23:00,46.0,46.0,30.32,North,0,3.0,11.0,100,0.00,,,0.03,,2013-01-18 14:23:00,
2013-01-18 09:33:00,47.0,47.0,30.32,NNE,25,6.0,10.0,100,0.00,,,0.03,,2013-01-18 14:33:00,
2013-01-18 09:42:00,47.0,47.0,30.32,NNE,25,6.0,10.0,100,0.00,,,0.03,,2013-01-18 14:42:00,
2013-01-18 09:53:00,49.0,49.0,30.32,North,0,3.0,8.0,100,0.00,,,0.03,,2013-01-18 14:53:00,
2013-01-18 10:03:00,49.0,49.0,30.32,North,0,3.0,8.0,100,0.00,,,0.03,,2013-01-18 15:03:00,
2013-01-18 10:13:00,49.0,49.0,30.32,North,0,3.0,8.0,100,0.00,,,0.03,,2013-01-18 15:13:00,
2013-01-18 10:23:00,52.0,52.0,30.32,North,7,3.0,8.0,100,0.00,,,0.03,,2013-01-18 15:23:00,
2013-01-18 10:33:00,54.0,54.0,30.32,North,0,3.0,10.0,100,0.00,,,0.03,,2013-01-18 15:33:00,
2013-01-18 10:43:00,54.0,54.0,30.32,North,0,3.0,10.0,100,0.00,,,0.03,,2013-01-18 15:43:00,
2013-01-18 10:53:00,55.0,55.0,30.32,North,0,7.0,11.0,100,0.00,,,0.03,,2013-01-18 15:53:00,
2013-01-18 11:03:00,57.0,57.0,30.33,NNW,348,4.0,11.0,100,0.00,,,0.03,,2013-01-18 16:03:00,
2013-01-18 11:12:00,57.0,57.0,30.33,NNW,348,4.0,11.0,100,0.00,,,0.03,,2013-01-18 16:12:00,
2013-01-18 11:23:00,57.0,57.0,30.32,NNE,15,4.0,9.0,100,0.00,,,0.03,,2013-01-18 16:23:00,
2013-01-18 11:33:00,57.0,57.0,30.32,North,0,7.0,12.0,100,0.00,,,0.03,,2013-01-18 16:33:00,
2013-01-18 11:42:00,57.0,57.0,30.32,North,0,7.0,12.0,100,0.00,,,0.03,,2013-01-18 16:42:00,
2013-01-18 11:52:00,57.0,57.0,30.31,NNE,25,9.0,11.0,100,0.00,,,0.03,,2013-01-18 16:52:00,
2013-01-18 12:03:00,58.0,58.0,30.31,North,356,5.0,9.0,100,0.00,,,0.03,,2013-01-18 17:03:00,
2013-01-18 12:13:00,58.0,58.0,30.31,North,356,5.0,9.0,100,0.00,,,0.03,,2013-01-18 17:13:00,
2013-01-18 12:23:00,58.0,58.0,30.30,NNE,31,7.0,16.0,100,0.00,,,0.02,,2013-01-18 17:23:00,
2013-01-18 12:33:00,60.0,60.0,30.29,NNW,347,1.0,15.0,100,0.00,,,0.02,,2013-01-18 17:33:00,
2013-01-18 12:43:00,60.0,60.0,30.29,NNW,347,1.0,15.0,100,0.00,,,0.02,,2013-01-18 17:43:00,
2013-01-18 12:53:00,65.0,65.0,30.27,NNE,25,11.0,15.0,100,0.00,,,0.02,,2013-01-18 17:53:00,
2013-01-18 13:03:00,64.0,64.0,30.27,North,9,8.0,11.0,100,0.00,,,0.02,,2013-01-18 18:03:00,
2013-01-18 13:13:00,64.0,64.0,30.27,North,9,8.0,11.0,100,0.00,,,0.02,,2013-01-18 18:13:00,
2013-01-18 13:23:00,66.0,66.0,30.26,North,8,8.0,12.0,100,0.00,,,0.02,,2013-01-18 18:23:00,
2013-01-18 13:33:00,66.0,66.0,30.27,ENE,70,7.0,14.0,100,0.00,,,0.02,,2013-01-18 18:33:00,
2013-01-18 13:43:00,66.0,66.0,30.27,ENE,70,7.0,14.0,100,0.00,,,0.02,,2013-01-18 18:43:00,
2013-01-18 13:52:00,66.0,66.0,30.25,NNE,26,7.0,11.0,100,0.00,,,0.02,,2013-01-18 18:52:00,
2013-01-18 14:03:00,67.0,67.0,30.25,NE,41,4.0,11.0,100,0.01,,,0.03,,2013-01-18 19:03:00,
2013-01-18 14:13:00,67.0,67.0,30.25,NE,41,4.0,11.0,100,0.01,,,0.03,,2013-01-18 19:13:00,
2013-01-18 14:23:00,67.0,67.0,30.26,North,7,7.0,13.0,100,0.01,,,0.03,,2013-01-18 19:23:00,
2013-01-18 14:33:00,63.0,63.0,30.25,North,359,5.0,12.0,100,0.01,,,0.03,,2013-01-18 19:33:00,
2013-01-18 14:43:00,63.0,63.0,30.25,North,359,5.0,12.0,100,0.01,,,0.03,,2013-01-18 19:43:00,
2013-01-18 14:53:00,62.0,62.0,30.25,NNE,14,5.0,9.0,100,0.01,,,0.03,,2013-01-18 19:53:00,
2013-01-18 15:03:00,63.0,63.0,30.25,NNE,32,6.0,9.0,100,0.00,,,0.03,,2013-01-18 20:03:00,
2013-01-18 15:13:00,63.0,63.0,30.25,NNE,32,6.0,9.0,100,0.00,,,0.03,,2013-01-18 20:13:00,
2013-01-18 15:23:00,63.0,63.0,30.24,North,0,5.0,14.0,100,0.00,,,0.03,,2013-01-18 20:23:00,
2013-01-18 15:33:00,62.0,62.0,30.24,NE,45,8.0,14.0,100,0.00,,,0.03,,2013-01-18 20:33:00,
2013-01-18 15:43:00,62.0,62.0,30.24,NE,45,8.0,14.0,100,0.00,,,0.03,,2013-01-18 20:43:00,
2013-01-18 15:53:00,63.0,63.0,30.25,North,359,5.0,10.0,100,0.00,,,0.03,,2013-01-18 20:53:00,
2013-01-18 16:03:00,62.0,62.0,30.24,NNE,18,6.0,8.0,100,0.00,,,0.03,,2013-01-18 21:03:00,
2013-01-18 16:13:00,62.0,62.0,30.24,NNE,18,6.0,8.0,100,0.00,,,0.03,,2013-01-18 21:13:00,
2013-01-18 16:23:00,63.0,63.0,30.25,North,2,6.0,10.0,100,0.00,,,0.03,,2013-01-18 21:23:00,
2013-01-18 16:33:00,63.0,63.0,30.25,North,359,6.0,7.0,100,0.00,,,0.03,,2013-01-18 21:33:00,
2013-01-18 16:43:00,63.0,63.0,30.25,North,359,6.0,7.0,100,0.00,,,0.03,,2013-01-18 21:43:00,
2013-01-18 16:53:00,63.0,63.0,30.25,NE,37,10.0,12.0,100,0.00,,,0.03,,2013-01-18 21:53:00,
2013-01-18 17:03:00,63.0,63.0,30.24,NNE,20,1.0,9.0,100,0.00,,,0.03,,2013-01-18 22:03:00,
2013-01-18 17:12:00,63.0,63.0,30.24,NNE,20,1.0,9.0,100,0.00,,,0.03,,2013-01-18 22:12:00,
2013-01-18 17:23:00,62.0,62.0,30.26,NE,45,6.0,6.0,100,0.00,,,0.02,,2013-01-18 22:23:00,
2013-01-18 17:33:00,62.0,62.0,30.25,North,4,6.0,12.0,100,0.00,,,0.02,,2013-01-18 22:33:00,
2013-01-18 17:43:00,62.0,62.0,30.25,North,4,6.0,12.0,100,0.00,,,0.02,,2013-01-18 22:43:00,
2013-01-18 17:53:00,62.0,62.0,30.25,NE,49,5.0,9.0,100,0.00,,,0.02,,2013-01-18 22:53:00,
2013-01-18 18:03:00,62.0,62.0,30.27,North,0,4.0,8.0,100,0.00,,,0.02,,2013-01-18 23:03:00,
2013-01-18 18:12:00,62.0,62.0,30.27,North,0,4.0,8.0,100,0.00,,,0.02,,2013-01-18 23:12:00,
2013-01-18 18:23:00,62.0,62.0,30.26,NNW,330,2.0,8.0,100,0.00,,,0.02,,2013-01-18 23:23:00,
2013-01-18 18:33:00,62.0,62.0,30.27,North,0,3.0,5.0,100,0.00,,,0.02,,2013-01-18 23:33:00,
2013-01-18 18:43:00,62.0,62.0,30.27,North,0,3.0,5.0,100,0.00,,,0.02,,2013-01-18 23:43:00,
2013-01-18 18:53:00,62.0,62.0,30.27,North,358,4.0,10.0,100,0.00,,,0.02,,2013-01-18 23:53:00,
2013-01-18 19:02:00,61.0,61.0,30.27,NNW,339,7.0,10.0,100,0.00,,,0.02,,2013-01-19 00:02:00,
2013-01-18 19:12:00,61.0,61.0,30.27,NNW,339,7.0,10.0,100,0.00,,,0.02,,2013-01-19 00:12:00,
2013-01-18 19:23:00,61.0,61.0,30.27,NE,38,7.0,11.0,100,0.00,,,0.02,,2013-01-19 00:23:00,
2013-01-18 19:33:00,62.0,62.0,30.27,North,3,4.0,9.0,100,0.00,,,0.02,,2013-01-19 00:33:00,
2013-01-18 19:43:00,62.0,62.0,30.27,North,3,4.0,9.0,100,0.00,,,0.02,,2013-01-19 00:43:00,
2013-01-18 19:53:00,61.0,61.0,30.28,NE,52,8.0,16.0,100,0.00,,,0.02,,2013-01-19 00:53:00,
2013-01-18 20:02:00,61.0,61.0,30.29,North,5,8.0,15.0,100,0.00,,,0.02,,2013-01-19 01:02:00,
2013-01-18 20:12:00,61.0,61.0,30.29,North,5,8.0,15.0,100,0.00,,,0.02,,2013-01-19 01:12:00,
2013-01-18 20:22:00,61.0,61.0,30.29,NNE,15,8.0,10.0,100,0.00,,,0.02,,2013-01-19 01:22:00,
2013-01-18 20:33:00,61.0,61.0,30.29,North,351,8.0,15.0,100,0.00,,,0.02,,2013-01-19 01:33:00,
2013-01-18 20:42:00,61.0,61.0,30.29,North,351,8.0,15.0,100,0.00,,,0.02,,2013-01-19 01:42:00,
2013-01-18 20:53:00,60.0,60.0,30.29,NE,44,12.0,16.0,100,0.00,,,0.02,,2013-01-19 01:53:00,
2013-01-18 21:02:00,60.0,60.0,30.30,NNW,338,11.0,11.0,100,0.00,,,0.02,,2013-01-19 02:02:00,
2013-01-18 21:12:00,60.0,60.0,30.30,NNW,338,11.0,11.0,100,0.00,,,0.02,,2013-01-19 02:12:00,
2013-01-18 21:23:00,60.0,60.0,30.29,North,2,9.0,14.0,100,0.00,,,0.02,,2013-01-19 02:23:00,
2013-01-18 21:33:00,60.0,60.0,30.30,North,0,5.0,10.0,100,0.00,,,0.02,,2013-01-19 02:33:00,
2013-01-18 21:43:00,60.0,60.0,30.30,North,0,5.0,10.0,100,0.00,,,0.02,,2013-01-19 02:43:00,
2013-01-18 21:53:00,59.0,59.0,30.31,NNE,20,9.0,11.0,100,0.00,,,0.02,,2013-01-19 02:53:00,
2013-01-18 22:03:00,59.0,59.0,30.30,North,2,4.0,9.0,100,0.00,,,0.02,,2013-01-19 03:03:00,
2013-01-18 22:12:00,59.0,59.0,30.30,North,2,4.0,9.0,100,0.00,,,0.02,,2013-01-19 03:12:00,
2013-01-18 22:22:00,59.0,59.0,30.29,NNW,335,2.0,11.0,100,0.01,,,0.03,,2013-01-19 03:22:00,
2013-01-18 22:33:00,59.0,59.0,30.30,North,352,5.0,12.0,100,0.01,,,0.03,,2013-01-19 03:33:00,
2013-01-18 22:43:00,59.0,59.0,30.30,North,352,5.0,12.0,100,0.01,,,0.03,,2013-01-19 03:43:00,
2013-01-18 22:53:00,58.0,58.0,30.30,North,0,4.0,13.0,100,0.01,,,0.03,,2013-01-19 03:53:00,
2013-01-18 23:02:00,58.0,58.0,30.30,North,0,2.0,10.0,100,0.01,,,0.03,,2013-01-19 04:02:00,
2013-01-18 23:12:00,58.0,58.0,30.30,North,0,2.0,10.0,100,0.01,,,0.03,,2013-01-19 04:12:00,
2013-01-18 23:22:00,58.0,58.0,30.30,North,10,7.0,12.0,100,0.00,,,0.03,,2013-01-19 04:22:00,
2013-01-18 23:32:00,57.0,57.0,30.29,North,0,3.0,6.0,100,0.00,,,0.03,,2013-01-19 04:32:00,
2013-01-18 23:42:00,57.0,57.0,30.29,North,0,3.0,6.0,100,0.00,,,0.03,,2013-01-19 04:42:00,
2013-01-18 23:53:00,57.0,57.0,30.29,North,353,5.0,9.0,100,0.00,,,0.03,,2013-01-19 04:53:00,